Change the Weather History Date:

Tuesday, December 18, 2012

  Actual Average Record
Temperature  
Mean Temperature 48 °F -  
Max Temperature 62 °F 43 °F 64 °F (2002)
Min Temperature 35 °F 26 °F 12 °F (1996)
Degree Days  
Heating Degree Days 16    
Moisture  
Dew Point 32 °F    
Average Humidity 55    
Maximum Humidity 70    
Minimum Humidity 34    
Precipitation  
Precipitation 0.00 in - - ()
Sea Level Pressure  
Sea Level Pressure 29.81 in    
Wind  
Wind Speed 8 mph (South)    
Max Wind Speed 18 mph    
Max Gust Speed 24 mph    
Visibility 10 miles    
Events      
Averages and records for this station are not official NWS values.
T = Trace of Precipitation, MM = Missing Value Source: NWS Daily Summary

Daily Weather History Graph

Daily Weather History Graph

Search for Another Location

Airport or City:

Trip Planner

Search our weather history database for the weather conditions in past years. The results will help you decide how hot, cold, wet, or windy it might be!

Date:

Astronomy

Dec. 18, 2012 Rise Set
Actual Time 7:23 AM CST 5:05 PM CST
Civil Twilight 6:55 AM CST 5:34 PM CST
Nautical Twilight 6:23 AM CST 6:06 PM CST
Astronomical Twilight 5:51 AM CST 6:38 PM CST
Moon 11:13 AM CST (12/18) 11:22 PM CST (12/18)
Length of Visible Light 10h 39m
Length of Day
9h 41m
Waxing Crescent, 35% of the Moon is Illuminated
Dec 18
Waxing Crescent
Dec 19
First Quarter
Dec 28
Full
Jan 4
Last Quarter
Jan 11
New

Hourly Weather History & Observations

Time (CST) Temp. Windchill Dew Point Humidity Pressure Visibility Wind Dir Wind Speed Gust Speed Precip Events Conditions
12:15 AM 37.4 °F 30.8 °F 28.4 °F 70% 29.81 in 10.0 mi South 9.2 mph - N/A   Clear
12:35 AM 35.6 °F 28.6 °F 26.6 °F 70% 29.81 in 10.0 mi South 9.2 mph - N/A   Clear
1:15 AM 37.4 °F 31.4 °F 28.4 °F 70% 29.81 in 10.0 mi South 8.1 mph - N/A   Clear
1:35 AM 37.4 °F 32.1 °F 28.4 °F 70% 29.80 in 10.0 mi South 6.9 mph - N/A   Clear
2:15 AM 39.2 °F 34.2 °F 30.2 °F 70% 29.79 in 10.0 mi South 6.9 mph - N/A   Clear
2:35 AM 39.2 °F 33.6 °F 28.4 °F 65% 29.80 in 10.0 mi South 8.1 mph - N/A   Clear
2:55 AM 39.2 °F 33.6 °F 28.4 °F 65% 29.79 in 10.0 mi South 8.1 mph - N/A   Clear
3:15 AM 37.4 °F 32.1 °F 28.4 °F 70% 29.80 in 10.0 mi South 6.9 mph - N/A   Clear
3:35 AM 37.4 °F 33.8 °F 28.4 °F 70% 29.79 in 10.0 mi South 4.6 mph - N/A   Clear
3:55 AM 37.4 °F 33.8 °F 26.6 °F 65% 29.78 in 10.0 mi South 4.6 mph - N/A   Clear
4:35 AM 39.2 °F 33.0 °F 30.2 °F 70% 29.77 in 10.0 mi South 9.2 mph - N/A   Clear
5:15 AM 37.4 °F 32.1 °F 28.4 °F 70% 29.77 in 10.0 mi South 6.9 mph - N/A   Clear
6:35 AM 41.0 °F 34.7 °F 30.2 °F 65% 29.77 in 10.0 mi South 10.4 mph - N/A   Clear
6:55 AM 42.8 °F 36.6 °F 30.2 °F 61% 29.77 in 10.0 mi South 11.5 mph - N/A   Clear
7:15 AM 42.8 °F 36.6 °F 30.2 °F 61% 29.77 in 10.0 mi South 11.5 mph - N/A   Clear
7:55 AM 42.8 °F 38.0 °F 30.2 °F 61% 29.77 in 10.0 mi South 8.1 mph - N/A   Clear
8:15 AM 44.6 °F 39.7 °F 32.0 °F 61% 29.77 in 10.0 mi South 9.2 mph - N/A   Clear
8:35 AM 46.4 °F 41.9 °F 32.0 °F 57% 29.77 in 10.0 mi South 9.2 mph - N/A   Clear
9:15 AM 48.2 °F - 33.8 °F 58% 29.78 in 10.0 mi South 10.4 mph - N/A   Clear
9:35 AM 51.8 °F - 35.6 °F 54% 29.79 in 10.0 mi South 13.8 mph - N/A   Clear
9:55 AM 53.6 °F - 35.6 °F 51% 29.79 in 10.0 mi South 18.4 mph 24.2 mph N/A   Clear
10:16 AM 55.4 °F - 35.6 °F 47% 29.80 in 10.0 mi SSW 17.3 mph 23.0 mph N/A   Clear
10:35 AM 55.4 °F - 35.6 °F 47% 29.80 in 10.0 mi South 18.4 mph 24.2 mph N/A   Clear
11:15 AM 57.2 °F - 33.8 °F 41% 29.80 in 10.0 mi SSW 18.4 mph - N/A   Clear
11:35 AM 57.2 °F - 33.8 °F 41% 29.80 in 10.0 mi SSW 17.3 mph - N/A   Clear
11:55 AM 57.2 °F - 35.6 °F 44% 29.79 in 10.0 mi SSW 13.8 mph - N/A   Clear
12:35 PM 60.8 °F - 35.6 °F 39% 29.78 in 10.0 mi SW 15.0 mph - N/A   Clear
12:55 PM 60.8 °F - 35.6 °F 39% 29.77 in 10.0 mi WSW 12.7 mph - N/A   Clear
1:15 PM 60.8 °F - 35.6 °F 39% 29.77 in 10.0 mi SW 10.4 mph - N/A   Clear
1:36 PM 62.6 °F - 35.6 °F 37% 29.77 in 10.0 mi West 8.1 mph - N/A   Clear
2:15 PM 62.6 °F - 35.6 °F 37% 29.78 in 10.0 mi WSW 9.2 mph - N/A   Clear
2:55 PM 62.6 °F - 33.8 °F 34% 29.78 in 10.0 mi WSW 8.1 mph - N/A   Clear
3:35 PM 62.6 °F - 35.6 °F 37% 29.79 in 10.0 mi West 6.9 mph - N/A   Clear
4:15 PM 59.0 °F - 35.6 °F 42% 29.79 in 10.0 mi West 5.8 mph - N/A   Clear
4:35 PM 57.2 °F - 33.8 °F 41% 29.79 in 10.0 mi West 4.6 mph - N/A   Clear
5:15 PM 53.6 °F - 32.0 °F 44% 29.81 in 10.0 mi NW 3.5 mph - N/A   Clear
5:35 PM 53.6 °F - 32.0 °F 44% 29.81 in 10.0 mi Calm Calm - N/A   Clear
5:56 PM 51.8 °F - 32.0 °F 47% 29.82 in 10.0 mi Calm Calm - N/A   Clear
6:15 PM 51.8 °F - 32.0 °F 47% 29.83 in 10.0 mi Calm Calm - N/A   Clear
6:35 PM 51.8 °F - 32.0 °F 47% 29.83 in 10.0 mi Calm Calm - N/A   Clear
7:15 PM 48.2 °F - 33.8 °F 58% 29.84 in 10.0 mi Calm Calm - N/A   Clear
7:35 PM 48.2 °F - 32.0 °F 54% 29.85 in 10.0 mi Calm Calm - N/A   Clear
7:55 PM 42.8 °F 40.1 °F 30.2 °F 61% 29.85 in 10.0 mi North 4.6 mph - N/A   Clear
8:15 PM 42.8 °F 40.1 °F 30.2 °F 61% 29.85 in 10.0 mi North 4.6 mph - N/A   Clear
8:16 PM 42.8 °F 40.1 °F 30.2 °F 61% 29.85 in 10.0 mi North 4.6 mph - N/A   Clear
8:35 PM 44.6 °F 43.1 °F 30.2 °F 57% 29.85 in 10.0 mi NE 3.5 mph - N/A   Clear
8:55 PM 46.4 °F 44.3 °F 30.2 °F 53% 29.86 in 10.0 mi NE 4.6 mph - N/A   Clear
9:15 PM 44.6 °F 42.2 °F 30.2 °F 57% 29.86 in 10.0 mi ENE 4.6 mph - N/A   Clear
9:35 PM 42.8 °F 40.1 °F 30.2 °F 61% 29.85 in 10.0 mi East 4.6 mph - N/A   Clear
9:55 PM 42.8 °F 39.3 °F 28.4 °F 57% 29.85 in 10.0 mi East 5.8 mph - N/A   Clear
10:15 PM 42.8 °F 40.1 °F 30.2 °F 61% 29.85 in 10.0 mi East 4.6 mph - N/A   Clear
10:35 PM 42.8 °F 38.6 °F 30.2 °F 61% 29.85 in 10.0 mi East 6.9 mph - N/A   Clear
10:36 PM 42.8 °F 38.6 °F 30.2 °F 61% 29.85 in 10.0 mi East 6.9 mph - N/A   Clear
11:15 PM 42.8 °F 39.3 °F 30.2 °F 61% 29.84 in 10.0 mi East 5.8 mph - N/A   Clear
11:55 PM 39.2 °F 34.2 °F 30.2 °F 70% 29.85 in 10.0 mi ENE 6.9 mph - N/A   Clear